Temp
17 17 16 16 16 16 16 16 16 16 16 16 17 17 18 18 18 17 17 17 17 17 17 17 17 17 17 17 17 17 17 17 17 17 17 17 17 17 17 17 17 17
16 16 17 17 17 17 16 16 16 16 16 16 17 17 18 18 18 17 17 17 17 17 17 17 17 17 17 17 17 17 17 17 17 17 17 17 17 17 17 17 17 17
15 16 16 17 17 17 16 17 16 16 16 16 17 17 18 18 18 18 18 18 18 18 17 17 17 17 17 17 17 17 17 17 17 17 17 17 17 17 17 17 17 17
15 15 16 16 16 16 16 16 16 16 17 17 17 17 17 18 18 18 18 18 18 18 17 17 17 17 17 17 17 17 17 17 17 17 17 17 17 17 17 17 17 17
15 15 15 15 15 14 14 16 17 17 17 17 17 17 17 18 18 18 18 18 18 18 17 17 17 17 17 17 17 17 17 17 17 17 17 17 17 17 17 17 17 17
14 15 15 15 15 15 15 16 17 17 17 17 17 17 18 18 18 18 18 18 18 18 18 18 18 18 18 17 17 17 17 17 17 17 17 17 17 17 17 17 17 17
14 15 15 16 17 17 16 16 16 16 16 17 17 17 18 18 18 18 18 18 18 18 18 18 18 18 18 17 17 17 17 17 17 17 17 17 17 17 16 16 17 17
15 14 14 15 15 15 16 16 16 16 16 17 17 17 18 18 18 18 18 18 18 18 18 18 18 18 18 17 17 17 17 17 17 17 16 16 16 16 16 16 16 16
14 14 14 14 14 14 15 16 16 15 16 16 17 17 18 18 18 18 18 18 18 18 18 18 18 18 18 17 17 17 17 17 17 16 16 16 16 16 16 16 16 16
14 15 15 14 14 15 15 15 16 16 16 16 17 17 17 18 18 18 18 18 18 18 18 17 17 17 17 17 17 17 17 17 17 16 16 16 17 16 16 16 16 16
13 14 14 14 15 15 14 15 16 15 15 16 16 16 17 17 18 18 17 18 18 18 18 17 17 17 17 17 17 17 17 17 17 17 16 16 17 17 16 16 16 16
13 13 13 14 14 14 14 15 15 15 15 16 17 16 15 16 17 18 17 18 18 18 18 17 17 17 17 17 17 17 17 17 17 17 17 17 17 16 16 16 16 16
13 13 13 13 13 14 14 14 15 15 15 16 17 17 16 15 16 17 17 18 18 18 18 17 17 17 17 17 17 17 17 17 17 17 17 17 16 16 16 16 16 16
12 13 13 13 13 14 14 14 14 14 15 16 16 16 16 16 16 17 17 18 18 18 18 17 17 17 17 17 17 17 17 17 17 17 17 16 16 16 16 16 16 16
12 13 13 13 13 13 13 14 14 14 14 15 16 16 15 15 16 17 17 17 17 17 17 17 17 17 17 17 17 17 17 17 17 17 17 17 16 16 16 16 16 16
12 12 13 13 13 13 13 13 13 14 14 15 15 15 15 15 16 16 17 17 17 17 17 17 17 17 17 17 17 17 18 18 17 17 17 17 17 16 16 16 15 15
11 12 12 13 13 13 13 13 13 14 14 14 15 15 15 15 16 16 16 17 17 17 17 17 17 17 17 17 18 18 18 18 18 18 17 17 17 17 16 16 15 15
10 11 11 12 13 13 13 13 13 13 13 13 14 14 15 15 15 16 16 16 17 17 17 17 17 17 17 18 18 18 18 18 18 18 18 17 17 17 16 16 16 15
9 10 10 11 12 13 13 13 13 13 13 13 13 14 15 15 15 15 16 16 17 17 17 17 17 17 17 18 18 18 18 18 18 18 18 17 16 16 16 16 16 15
8 9 10 10 11 12 13 13 13 13 12 13 13 13 14 14 15 15 15 16 16 16 16 17 17 17 17 18 18 18 18 18 18 18 17 16 16 16 16 15 15 16
7 7 9 10 10 11 12 12 12 12 12 12 12 13 13 13 14 14 14 15 16 16 16 17 17 17 17 17 18 18 18 18 17 17 16 16 16 16 15 15 15 15
6 7 7 8 9 9 9 10 9 10 10 11 11 12 11 11 11 12 13 14 14 15 15 16 16 17 17 17 17 17 17 17 16 16 15 15 15 15 15 15 15 15
6 6 6 7 8 8 7 7 7 7 8 9 10 10 9 9 9 10 11 13 13 13 14 14 15 16 16 16 16 17 17 16 15 15 14 14 14 14 14 14 14 15
6 6 6 6 7 7 6 6 6 6 6 8 8 8 8 8 8 8 9 11 12 12 12 13 13 13 14 14 14 15 16 16 15 14 14 13 13 13 13 13 13 13
6 6 5 5 6 6 6 5 5 5 6 7 8 8 8 8 8 8 7 8 10 11 11 11 11 11 12 13 13 14 15 15 15 14 13 12 12 12 12 12 12 12
6 6 5 5 5 5 6 6 5 5 6 7 7 7 8 8 8 8 7 6 8 9 9 10 10 10 10 11 12 13 14 14 14 14 13 12 12 12 12 12 12 12
Height
794 793 792 792 793 794 794 795 797 797 798 802 803 802 803 804 805 806 807 809 810 811 813 815 817 819 821 822 824 825 827 828 830 831 833 834 835 836 837 838 839 840
796 794 792 790 790 791 791 792 795 796 797 799 800 801 802 803 804 805 807 808 809 811 812 814 816 818 820 822 823 825 826 827 829 830 832 833 834 834 835 837 838 839
795 795 792 789 788 789 789 791 793 795 796 797 799 800 801 802 804 805 806 807 808 810 811 813 815 817 819 821 822 824 825 826 828 829 830 831 832 833 834 835 836 837
793 793 791 789 789 788 790 791 792 794 795 796 797 799 801 802 803 803 804 806 807 809 810 812 814 816 818 820 821 823 824 825 827 828 829 830 831 832 833 834 835 836
793 791 789 789 790 791 793 792 791 792 793 795 796 798 800 801 802 802 803 805 806 808 809 811 813 815 817 819 820 822 823 824 825 826 828 829 830 831 832 833 834 835
792 791 788 788 789 791 791 791 790 790 791 794 795 797 798 799 801 802 803 804 806 807 809 810 812 814 816 818 820 821 822 823 825 825 827 828 829 830 831 832 832 833
790 789 788 787 786 786 787 789 791 791 791 793 794 796 797 798 800 801 802 804 805 807 808 810 811 813 815 817 819 820 822 823 824 825 826 827 828 829 830 830 831 832
787 787 788 788 788 788 788 789 791 791 792 792 793 794 795 797 798 800 801 803 804 806 807 809 810 812 814 816 818 820 821 822 823 824 825 826 827 828 829 830 830 831
786 785 786 788 790 790 789 789 789 790 791 792 792 793 794 795 797 799 800 802 804 805 806 807 809 811 813 815 817 818 820 821 822 823 824 825 826 827 828 829 830 830
783 782 783 786 787 787 786 787 788 788 789 790 792 793 793 794 796 798 799 801 802 803 804 806 808 810 812 814 815 817 818 820 821 822 823 824 825 826 827 828 829 830
782 782 783 784 784 785 785 785 785 786 786 787 789 791 792 793 794 796 798 800 801 802 803 804 806 809 811 812 814 816 817 819 820 821 822 823 824 825 826 827 828 829
783 782 783 783 783 785 785 784 784 785 785 785 785 788 791 792 792 794 796 798 800 801 802 803 805 807 809 811 813 814 816 817 818 820 821 822 823 823 825 826 827 828
782 781 782 782 782 783 782 782 782 783 783 784 785 786 789 791 792 793 795 797 798 800 801 803 804 806 808 810 811 813 814 816 817 819 820 821 822 823 824 825 826 827
780 780 780 780 780 779 779 780 781 782 782 783 784 785 787 789 790 792 794 796 797 798 800 801 803 805 807 809 810 811 813 815 816 817 818 819 821 822 823 823 824 825
779 779 779 779 779 777 778 779 779 779 780 781 782 783 785 787 788 790 792 794 796 797 799 800 802 804 806 808 809 810 812 814 815 816 817 818 820 821 822 822 823 825
779 778 777 777 777 776 776 777 776 776 777 778 779 780 782 785 787 789 790 792 794 796 798 799 801 803 805 807 808 809 811 812 814 815 816 817 818 820 821 821 822 824
779 777 776 776 775 775 775 775 774 774 775 775 776 778 780 784 786 788 789 791 793 795 796 798 800 802 805 806 807 809 810 811 812 813 815 816 817 818 819 820 822 823
780 777 776 775 774 774 773 773 773 772 773 774 774 776 779 782 785 786 788 790 792 794 796 797 799 802 804 805 807 808 809 809 810 812 813 815 816 817 818 819 821 822
781 778 776 774 773 772 772 772 771 771 771 772 773 775 777 780 784 785 786 788 790 792 795 797 799 801 803 805 806 807 808 809 810 811 812 814 815 817 818 819 820 821
783 780 778 775 773 771 771 771 770 770 770 772 773 774 776 779 782 783 785 787 789 792 794 796 798 800 802 804 805 806 807 808 809 810 812 813 815 817 818 819 820 821
786 783 779 776 773 772 771 771 771 770 770 772 773 774 776 778 780 782 784 786 789 791 794 796 798 799 801 802 804 805 806 807 808 809 811 813 815 816 818 820 821 822
788 785 782 779 776 774 773 773 773 773 772 772 773 775 777 780 781 782 784 786 788 791 794 795 797 798 800 801 803 804 805 806 807 809 811 812 814 817 818 820 822 823
791 788 786 783 780 778 777 776 776 776 775 774 774 775 778 781 784 784 784 786 788 791 794 795 796 798 799 800 802 803 804 805 807 809 811 812 814 817 819 820 822 824
794 791 789 787 785 783 782 781 780 780 780 778 777 778 780 783 785 785 786 788 789 792 795 796 796 798 799 800 802 803 804 805 806 808 811 813 815 817 820 821 823 824
798 795 793 791 790 788 786 785 784 784 784 783 781 781 783 785 787 788 790 791 791 793 796 797 797 799 800 801 802 804 804 805 806 808 811 813 815 818 820 822 823 825
802 799 797 795 794 793 791 790 790 789 788 787 786 785 786 788 790 791 794 795 794 795 798 799 799 800 802 802 803 804 806 806 806 808 810 813 816 818 820 822 824 826
Wind_Speed
16 17 18 19 20 21 21 21 20 18 20 24 23 21 20 19 18 18 18 18 18 18 17 18 19 18 18 18 19 21 21 20 20 19 20 20 19 19 18 17 17 18
18 20 20 21 22 23 22 21 20 19 19 21 22 20 19 18 17 17 18 19 18 18 17 18 19 18 18 18 19 21 21 20 19 18 18 18 17 18 17 16 16 16
20 24 25 25 24 25 23 19 18 18 17 18 20 19 19 19 18 18 19 19 18 18 18 18 19 19 19 18 19 21 21 20 19 18 17 16 16 16 15 15 15 15
19 25 27 27 25 24 21 16 15 15 15 17 19 19 19 19 19 19 19 19 19 19 18 18 18 19 19 19 19 19 20 19 18 17 17 16 15 15 14 14 14 14
17 22 24 23 21 18 15 13 14 15 16 18 20 19 20 20 20 20 20 19 19 19 18 17 17 18 18 19 19 19 19 18 18 18 17 16 15 14 14 14 14 15
14 18 19 17 17 17 17 16 16 17 18 20 20 20 21 22 21 21 20 20 20 19 18 18 17 17 18 18 18 19 19 19 18 18 17 16 14 13 13 13 13 14
16 18 17 15 16 18 19 18 17 18 19 20 20 21 22 22 22 22 21 20 20 20 19 19 18 18 18 18 18 19 19 19 18 18 17 16 15 14 13 12 12 13
17 17 17 17 17 17 17 17 18 19 20 20 21 22 23 23 24 24 23 22 21 21 20 19 19 19 19 19 19 20 20 19 18 17 17 16 15 14 13 12 12 13
13 13 14 14 14 16 18 19 19 20 20 21 22 23 24 24 24 25 25 24 22 22 21 20 20 20 19 19 19 20 20 19 18 17 17 17 16 14 13 13 13 14
11 12 13 12 15 18 21 20 19 20 21 21 22 24 25 25 25 26 26 25 24 24 22 20 20 20 19 19 19 19 19 18 17 17 17 17 15 14 13 14 14 14
13 13 11 12 16 19 20 20 20 21 22 23 23 24 26 26 26 27 27 27 26 25 23 21 21 21 20 19 19 18 17 16 16 17 17 16 15 14 14 14 15 14
14 14 11 12 15 16 17 20 22 23 24 25 25 24 26 27 28 28 28 28 27 25 23 21 21 22 21 20 19 18 16 15 15 15 15 15 14 14 13 14 14 14
14 14 12 13 14 15 18 21 23 25 26 27 26 25 26 28 28 28 28 28 26 24 23 21 22 22 21 19 18 18 16 15 15 15 15 15 14 13 13 13 14 15
15 14 13 13 14 16 19 22 23 24 26 27 27 26 26 27 28 28 28 27 25 24 23 21 22 22 21 19 18 17 17 16 16 16 16 15 14 13 13 12 13 14
16 14 14 14 15 17 19 21 23 25 26 27 28 27 26 27 29 28 28 27 25 24 23 22 23 23 20 19 18 17 17 16 16 16 16 15 13 12 13 12 12 13
17 15 14 15 17 18 19 20 24 27 27 27 29 29 28 29 30 28 26 27 26 24 23 22 22 22 20 19 18 17 17 17 18 18 17 15 13 12 12 13 13 12
20 17 15 15 17 19 20 21 25 27 27 28 29 29 27 28 29 27 25 26 27 25 23 22 21 21 20 19 17 16 15 16 18 18 18 15 13 11 12 13 13 14
22 20 18 15 17 19 20 21 25 27 27 27 28 27 25 26 28 27 25 26 27 25 23 22 21 20 20 19 18 15 13 14 15 16 16 15 13 12 12 14 15 16
25 22 19 16 15 19 20 20 24 27 26 26 27 26 26 27 27 25 24 26 25 24 23 23 21 20 20 20 18 16 14 13 13 14 15 15 14 13 13 15 16 17
26 23 20 16 12 14 17 19 22 24 22 24 26 25 26 27 27 25 24 24 23 23 23 23 22 21 22 21 18 16 16 14 13 14 16 17 17 16 16 16 17 19
27 24 20 17 13 7 7 9 14 16 17 20 22 22 23 24 25 24 23 22 22 22 22 22 22 21 21 20 18 17 16 15 15 17 19 21 20 19 19 19 20 22
27 25 22 18 15 11 7 5 5 9 14 17 19 19 18 16 17 20 20 19 20 20 20 20 20 20 19 18 17 17 16 17 18 20 22 23 22 21 21 22 22 23
27 26 24 20 17 16 15 13 11 10 12 15 18 18 15 12 13 14 16 17 17 16 15 16 16 16 17 17 17 17 17 19 21 23 24 24 23 22 22 22 22 22
27 26 25 22 19 18 18 17 15 15 14 16 19 19 17 17 16 16 16 16 17 15 13 14 14 15 16 18 18 18 18 20 23 25 25 25 24 23 22 22 22 21
26 26 25 23 21 18 18 19 19 19 19 20 22 23 23 22 20 21 21 19 19 18 15 15 16 16 16 18 20 20 20 22 24 26 26 27 26 25 24 22 21 20
26 25 24 23 21 19 19 20 21 22 23 25 26 27 27 26 25 25 25 25 23 21 18 17 17 16 15 16 18 20 21 23 25 27 28 28 27 26 24 22 19 18
Wind_Direction
250 243 241 244 244 240 237 238 239 236 234 234 231 225 219 219 217 213 210 206 203 203 204 205 206 208 213 218 221 221 220 220 219 219 221 224 226 228 230 229 226 224
252 249 246 247 248 245 242 243 243 239 235 234 233 228 222 219 215 209 206 204 203 205 206 208 209 212 216 218 220 221 222 222 221 220 221 224 226 227 229 229 228 226
249 250 251 248 246 244 241 243 245 243 242 238 235 232 225 218 210 207 206 206 207 208 209 211 212 214 219 219 217 217 219 220 221 222 223 225 226 227 227 228 228 225
246 247 253 255 251 246 241 242 246 246 246 240 236 234 228 217 211 208 208 208 208 209 209 211 213 214 218 220 218 216 218 220 220 220 221 222 224 227 227 226 225 223
253 249 252 256 258 256 248 244 242 242 244 241 236 233 227 219 213 208 206 208 207 207 209 211 214 215 217 219 220 220 219 219 218 218 219 220 219 221 223 223 222 222
267 264 259 258 264 264 257 248 236 231 236 238 235 230 224 220 214 206 205 208 207 207 211 213 215 217 218 220 221 219 219 217 217 218 219 218 215 213 214 217 218 219
262 266 262 255 255 256 254 251 242 235 235 235 232 228 222 219 213 206 206 210 210 209 212 214 217 217 218 219 219 217 217 217 218 218 217 215 212 210 210 213 215 216
262 263 265 261 254 251 250 248 242 239 237 233 229 224 222 219 214 209 209 211 211 211 212 214 217 217 215 217 217 216 216 216 218 217 215 213 211 211 213 213 214 214
283 268 268 269 262 254 247 242 239 236 236 235 229 223 221 219 217 214 211 211 212 212 212 214 216 215 213 214 216 216 215 215 216 216 214 211 211 213 215 213 211 211
301 269 256 251 252 248 240 236 237 234 232 231 228 226 222 217 217 216 213 212 213 212 211 212 213 212 211 212 213 214 215 215 216 216 215 214 213 214 215 213 209 208
297 285 273 256 252 248 238 231 232 232 229 223 222 226 223 215 213 215 214 212 212 211 210 209 208 209 210 211 211 211 213 216 217 215 214 215 217 218 217 214 209 207
305 308 303 280 266 256 244 233 230 232 229 222 219 222 222 216 212 213 213 213 212 212 211 209 207 209 211 210 209 208 210 214 215 213 212 214 216 218 219 216 210 209
319 318 310 294 281 265 250 237 231 233 231 225 220 219 220 219 217 215 213 214 214 212 212 212 210 211 212 210 208 207 207 208 208 209 210 212 213 217 219 217 213 211
324 314 308 301 288 272 258 245 237 235 232 228 224 219 220 221 217 214 214 214 213 212 213 214 213 213 212 209 206 205 204 205 206 208 209 209 211 214 217 219 218 213
328 312 304 299 288 276 268 254 241 234 228 226 224 220 220 220 214 210 211 211 210 211 214 213 212 214 213 209 204 202 202 205 207 209 211 210 209 209 212 215 215 210
335 319 305 297 287 277 270 258 243 233 224 219 218 216 216 218 213 207 208 210 210 211 213 211 213 217 215 208 203 201 203 208 211 213 214 213 208 203 202 206 207 206
341 327 311 297 285 276 267 255 245 235 224 215 211 209 210 213 211 207 206 209 211 211 212 213 215 215 212 206 201 196 196 201 204 206 209 209 208 202 197 199 202 201
352 339 326 306 285 274 265 254 243 234 223 212 206 204 205 207 208 206 205 207 210 210 211 211 210 208 205 200 194 185 182 186 188 193 198 199 199 197 195 196 197 194
2 352 343 326 295 275 266 252 237 227 217 208 205 204 203 203 204 204 204 206 208 208 207 205 203 200 196 194 190 184 184 185 185 189 193 189 185 184 185 187 186 181
9 3 355 344 322 284 264 245 228 219 209 202 203 201 198 199 201 201 201 202 203 202 201 200 200 196 191 190 191 190 192 193 191 188 183 175 172 171 171 171 168 163
14 11 5 359 355 326 267 231 213 205 194 191 193 191 190 192 193 194 194 194 193 194 195 196 197 195 191 191 194 195 194 192 186 179 172 166 163 164 163 159 156 153
18 18 18 17 19 26 42 73 127 161 170 173 174 175 177 176 175 179 182 182 183 186 189 192 194 194 192 191 192 192 188 181 174 168 164 160 158 159 159 157 156 155
25 26 28 30 35 42 50 60 74 98 127 146 149 149 146 136 137 150 160 166 170 172 177 182 183 185 184 180 182 186 182 172 166 161 157 155 153 155 156 154 154 156
30 33 35 37 43 49 55 64 76 86 100 119 126 122 114 111 113 114 120 139 150 150 153 159 157 160 165 165 169 178 179 171 164 157 151 149 147 146 147 147 146 148
33 37 40 42 47 55 62 70 78 87 96 104 109 107 103 101 103 98 91 98 116 125 129 132 134 140 153 160 163 170 173 169 163 156 147 143 142 139 137 137 137 136
37 39 42 45 50 59 70 77 80 84 93 98 99 101 102 100 99 96 85 81 92 104 108 110 115 124 139 153 160 164 165 163 161 156 147 142 140 138 135 133 132 132